Location: Azul
(36.7830°S, 59.8500°W)
Time: 11:22:23
(UTC-03:00)

DX 1 - Pass Details

Date: 30 October 2021
Orbit: 619 x 629 km, 98.4° (Epoch: 29 November)

Event Time Altitude Azimuth Distance (km) Brightness Sun altitude
Rises 20:15:47 0° 13° (NNE) 2,907 ? -9.2°
Reaches altitude 10° 20:17:57 10° 12° (NNE) 2,007 ? -9.6°
Maximum altitude 20:22:20 85° 284° (WNW) 643 ? -10.4°
Drops below altitude 10° 20:26:46 10° 194° (SSW) 2,030 ? -11.2°
Sets 20:28:59 0° 193° (SSW) 2,944 ? -11.6°
